SCP
1 1 2 2 1 1 1 1 1 1 1 1 1 1 1 1 1 1 1 1 1 1 1 1 1 1 1 1 1 1 1 1 1 1 1 1 1 1 1 1 1 1 1
1 1 2 2 2 1 1 1 1 1 1 1 1 1 1 1 1 1 1 1 1 1 1 1 1 1 1 1 1 1 1 1 1 1 1 1 1 1 1 1 1 1 1
1 1 2 2 2 1 1 1 1 1 1 1 1 1 1 1 1 1 1 1 1 1 1 1 1 1 1 1 1 1 1 1 1 1 0 0 0 1 1 1 1 1 1
1 1 2 2 2 2 1 1 1 1 1 1 1 2 2 2 1 1 1 1 1 1 1 1 1 1 1 1 1 1 1 1 1 1 0 1 1 1 1 1 1 1 1
1 1 2 3 3 2 1 1 1 1 1 1 1 2 2 2 2 1 1 1 1 1 1 1 1 1 1 1 1 1 1 1 1 1 1 1 1 1 1 1 1 1 1
2 2 3 4 3 1 1 1 1 1 1 1 1 1 2 2 1 1 1 1 1 1 1 1 1 1 1 1 1 1 1 1 1 1 1 1 1 1 1 1 1 1 1
2 3 4 4 2 1 1 1 1 1 1 1 1 1 1 1 1 1 1 1 1 1 1 0 0 1 1 1 1 1 1 1 1 1 1 1 1 1 1 1 1 1 1
3 4 4 3 2 1 1 1 1 1 1 1 1 1 1 1 1 1 1 1 1 1 1 0 0 0 0 1 1 1 1 1 1 1 1 1 1 1 1 1 1 1 1
4 4 4 2 1 1 1 1 1 1 1 1 1 1 1 1 1 1 1 1 1 1 1 1 1 0 0 1 1 1 1 1 1 1 1 1 1 1 1 1 1 1 1
3 3 2 1 1 1 1 1 1 1 1 1 1 1 1 1 1 1 1 1 1 1 1 1 1 1 1 1 1 1 1 1 1 1 1 1 1 1 1 1 1 1 1
1 1 1 1 1 1 1 1 1 1 1 1 1 1 1 0 0 1 1 1 1 1 1 1 1 1 1 1 1 1 1 0 0 0 1 1 1 1 1 1 1 1 1
1 1 1 1 1 1 1 1 1 1 1 1 1 0 0 0 0 0 1 1 1 1 1 1 1 1 1 1 1 1 1 0 0 0 1 1 1 1 1 1 1 1 1
1 1 1 1 1 1 1 1 1 1 1 1 1 0 0 0 0 0 0 0 0 0 0 1 1 1 1 0 1 1 0 0 0 0 1 1 1 1 1 1 1 2 2
2 2 2 2 2 2 1 1 1 1 1 1 1 1 0 0 0 0 0 0 0 0 0 0 1 1 1 0 0 0 0 0 0 0 0 1 1 1 1 1 1 2 2
2 3 3 2 2 1 1 1 1 1 1 1 1 1 1 1 0 0 0 0 0 0 0 0 0 1 1 0 0 0 0 0 0 0 0 1 1 1 1 1 1 2 2
3 3 3 2 1 1 1 1 1 1 1 1 1 1 1 1 0 0 0 0 0 1 1 1 1 1 1 1 0 0 1 1 1 1 1 1 1 1 1 1 1 1 2
3 3 2 1 1 1 1 1 1 1 1 1 1 1 1 1 1 0 0 0 1 1 1 1 1 1 1 1 1 1 1 1 1 1 1 1 1 1 1 1 1 1 1
2 2 2 1 1 2 1 1 1 1 1 1 1 1 1 1 1 1 1 1 1 1 1 1 1 1 1 1 1 1 1 1 1 1 1 1 1 1 1 1 1 1 1
2 2 2 1 2 2 2 2 2 1 1 1 1 1 1 1 1 1 1 1 1 2 2 2 2 2 2 1 1 1 1 1 1 1 1 1 1 1 1 1 1 1 1
3 3 2 2 2 2 2 2 2 2 2 2 2 2 1 1 1 2 2 2 2 2 3 3 3 3 3 1 1 1 0 0 1 1 1 1 1 1 1 1 1 1 1
4 4 3 3 2 2 2 2 2 2 2 2 3 2 2 2 2 2 3 3 3 3 4 4 4 3 2 1 1 0 0 0 0 1 1 0 0 0 0 1 1 1 1
3 3 4 4 3 2 1 2 3 3 3 3 3 3 3 3 3 4 4 4 4 4 5 4 4 2 1 1 0 0 0 0 0 0 0 0 0 0 0 0 0 1 1
2 2 4 5 4 2 1 1 2 3 3 4 4 4 4 4 4 5 5 5 5 5 4 4 3 2 1 0 0 0 0 0 0 0 0 0 0 0 0 0 0 0 0
1 2 3 5 5 3 2 1 2 2 3 3 4 4 4 5 5 5 5 4 4 4 4 3 2 1 1 0 0 0 0 0 0 0 0 0 0 0 0 0 0 0 0
2 2 3 4 5 4 2 2 2 3 4 5 5 5 5 6 6 5 4 3 3 3 3 3 2 1 1 0 0 0 0 0 0 0 0 0 0 0 0 0 0 0 0
2 2 2 4 5 4 3 3 3 4 5 6 6 6 6 7 7 5 3 2 2 3 3 3 2 2 1 0 0 0 0 0 0 0 0 0 0 0 0 0 0 0 0
Wind_Speed
4 4 8 8 7 7 7 8 8 8 9 9 9 9 9 9 9 9 8 8 8 8 9 9 9 9 9 9 9 9 9 9 9 9 10 10 10 10 10 11 11 9 12
6 6 9 9 8 8 8 8 8 8 9 9 9 9 9 9 9 8 8 8 8 8 8 9 8 8 8 8 9 9 9 9 8 8 9 9 9 10 11 12 11 7 11
7 6 8 10 9 9 8 8 8 8 9 9 9 8 8 8 8 8 8 7 7 7 8 8 8 8 8 8 8 8 8 8 8 8 8 5 6 10 10 11 11 11 11
8 6 7 10 9 9 9 9 8 8 8 9 8 8 8 8 8 7 7 6 7 7 7 8 7 8 7 7 7 7 8 8 8 8 4 4 4 9 9 10 10 11 10
7 5 6 11 9 9 9 8 8 9 9 8 8 7 8 8 7 7 7 7 8 8 8 8 7 7 7 6 7 7 7 8 8 6 4 3 3 7 9 9 10 10 10
6 5 6 11 9 9 9 9 8 8 8 8 8 7 7 8 8 7 7 7 7 7 7 8 7 6 6 6 6 6 7 8 7 5 4 3 3 6 8 9 9 9 9
6 4 5 10 9 9 8 8 8 8 7 7 7 7 7 7 6 7 7 6 7 7 7 7 6 5 5 5 5 6 6 7 6 4 4 3 4 6 7 8 8 8 9
6 4 4 9 9 8 8 8 7 7 6 6 6 6 6 6 6 6 6 6 6 7 6 6 6 5 4 4 5 5 6 7 5 4 3 3 5 6 6 7 7 7 8
5 4 3 4 5 7 7 7 7 6 6 5 5 5 6 6 5 5 5 5 5 6 6 6 6 5 5 5 5 5 5 6 4 3 3 2 5 6 6 6 6 7 7
4 3 3 3 2 2 3 6 6 5 5 5 5 5 5 5 4 4 4 4 5 5 5 5 5 5 5 5 5 5 5 4 3 2 1 2 5 5 5 6 6 6 6
4 3 3 3 2 2 2 4 4 4 4 4 3 3 3 2 2 2 3 3 4 4 4 4 4 4 4 4 5 5 4 2 2 1 1 3 4 5 4 5 5 6 6
6 5 3 3 3 2 2 2 1 1 1 1 1 1 2 1 1 1 2 3 3 3 3 3 3 3 3 2 3 3 1 2 1 1 1 3 3 4 4 5 5 5 5
6 5 4 3 3 2 1 2 1 1 1 1 1 1 1 1 1 1 1 1 2 2 2 2 2 2 2 2 2 2 2 1 1 0 0 2 2 3 3 4 4 5 5
6 5 4 4 3 2 1 1 1 1 1 1 1 1 1 1 1 1 1 1 1 1 1 1 1 2 2 2 2 2 1 1 0 0 1 2 2 2 3 3 3 4 5
6 6 5 4 4 3 2 1 2 1 1 1 1 1 1 1 1 0 1 1 1 1 1 1 1 2 2 2 1 2 1 1 1 0 1 1 2 2 3 3 3 3 3
7 6 5 5 5 4 3 2 2 2 1 1 1 1 2 1 1 1 0 1 1 1 1 1 1 1 1 1 1 1 1 1 1 0 0 1 2 2 3 3 3 3 2
7 6 6 6 5 5 4 3 2 2 1 1 1 1 2 2 2 1 1 1 1 1 1 1 2 2 2 2 1 1 1 0 1 0 0 0 0 1 2 2 2 2 2
6 6 6 6 5 5 4 3 2 2 2 1 1 1 2 2 2 2 1 0 1 1 1 2 2 2 2 2 2 1 1 1 1 1 0 0 0 0 1 2 2 2 2
7 6 6 4 5 4 4 2 1 1 1 1 1 1 2 2 2 2 1 1 1 2 1 1 2 2 2 2 1 1 2 2 1 1 1 1 1 1 1 1 1 2 2
5 5 5 4 4 3 3 2 1 1 1 1 1 2 2 2 2 2 2 1 2 2 1 1 2 2 2 1 2 2 2 2 2 2 1 2 2 1 1 1 0 1 2
4 5 5 4 4 3 3 3 2 2 1 1 1 2 2 2 2 3 2 2 2 2 2 2 2 2 2 1 2 2 2 2 2 2 2 2 2 2 2 2 1 1 1
6 5 4 4 4 4 3 3 2 2 1 2 1 1 2 3 3 3 3 2 2 2 2 2 2 2 1 1 2 1 2 3 3 3 2 2 2 2 2 2 1 1 1
7 7 6 6 5 4 3 2 2 1 1 0 1 1 2 3 3 3 3 3 3 3 2 2 2 3 2 1 1 2 2 0 2 2 2 2 2 2 1 1 1 1 1
8 7 6 5 4 4 4 4 4 4 3 3 2 2 2 2 3 3 3 3 3 2 2 2 2 2 3 1 1 1 1 2 1 1 2 2 2 2 1 1 1 1 1
7 6 6 5 5 5 5 6 5 4 3 2 2 2 2 2 2 3 3 3 3 2 2 2 2 2 2 2 2 1 2 2 1 1 0 2 2 1 1 1 1 1 1
6 6 5 5 5 5 5 5 5 5 4 3 3 3 2 1 1 2 3 3 3 2 2 3 3 3 2 2 2 2 2 2 1 2 1 0 1 1 2 1 1 1 1
Wind_Direction
168 167 159 150 140 129 121 115 109 109 111 108 107 106 110 113 115 116 119 125 127 130 130 128 127 126 127 125 125 128 127 126 125 126 131 133 137 139 143 143 137 135 135
152 158 155 146 138 130 123 116 111 107 107 107 107 107 108 113 116 119 120 123 128 130 131 129 129 129 127 123 121 123 122 121 126 127 132 136 137 142 145 144 139 140 142
139 148 148 144 139 131 124 117 113 111 108 107 105 104 104 110 115 118 120 121 125 132 131 126 127 129 127 122 121 123 122 120 120 120 119 119 131 141 142 143 143 145 146
138 138 145 147 140 132 125 119 114 113 109 106 104 103 102 105 109 114 116 117 123 127 129 129 128 129 129 127 123 123 125 122 122 119 98 105 126 141 143 143 145 147 147
133 137 154 146 140 133 126 120 113 112 110 106 103 103 102 103 105 110 112 109 117 120 114 118 124 127 128 126 118 116 122 122 125 116 97 93 108 136 140 143 144 146 146
136 143 156 146 143 137 129 123 117 113 110 106 103 102 100 100 100 100 109 112 118 119 118 118 114 111 116 119 116 116 120 120 115 104 105 106 110 131 136 140 142 142 143
141 146 157 148 144 139 131 125 120 116 111 107 106 105 102 101 101 98 100 112 120 123 123 121 118 114 115 117 114 114 113 116 106 103 105 110 120 131 137 141 144 144 144
141 141 148 152 147 142 135 127 123 117 112 108 106 105 104 102 102 101 99 108 122 126 124 120 115 117 126 127 117 113 117 114 105 111 112 119 132 137 141 144 146 149 150
133 134 135 144 146 145 140 133 126 121 116 112 109 111 109 106 106 105 101 100 115 128 121 122 116 112 112 123 115 108 110 108 98 104 124 128 140 144 146 149 155 159 161
130 130 131 132 128 134 140 143 134 126 121 115 110 116 115 111 108 105 99 95 102 124 124 124 119 117 120 119 115 113 116 112 94 104 120 140 148 153 159 161 165 167 169
154 148 147 145 140 136 139 154 142 136 129 124 121 124 109 72 66 83 97 101 104 110 113 115 120 123 127 123 124 122 115 85 95 98 130 148 157 160 162 163 165 165 169
176 175 167 162 160 152 159 128 105 113 101 88 75 80 75 69 47 70 77 95 98 98 95 99 107 108 108 97 122 131 97 92 92 95 142 156 161 169 170 168 168 169 170
177 177 178 176 168 161 145 129 109 88 79 71 73 83 79 67 37 38 41 30 32 51 51 50 57 68 85 98 90 95 106 108 96 91 208 179 177 181 178 169 171 173 174
168 179 177 171 164 163 140 136 129 118 112 113 103 99 95 82 54 30 33 23 33 42 47 47 60 66 82 95 102 104 116 132 145 236 236 185 182 193 183 179 180 177 176
172 177 176 167 169 165 151 157 151 160 162 161 140 125 131 132 131 79 35 44 39 43 54 47 59 69 82 93 104 114 123 135 157 211 286 215 196 196 188 191 195 187 181
180 176 170 173 175 168 169 169 168 175 178 164 172 171 159 155 155 141 91 54 41 50 69 83 78 79 79 94 97 115 140 147 163 188 289 277 211 192 192 193 195 190 184
182 176 176 179 176 174 175 181 174 181 174 180 185 175 168 164 160 155 124 64 44 76 84 79 70 75 80 82 78 73 88 108 114 111 298 309 243 196 195 189 168 174 185
172 173 183 184 176 178 175 179 175 170 167 186 176 164 173 171 160 149 129 93 82 88 89 91 78 80 70 71 63 40 41 45 55 69 71 70 109 143 183 157 140 135 155
174 172 177 175 170 178 171 158 162 152 165 182 159 157 167 165 157 146 141 130 108 92 85 97 81 96 85 70 68 49 35 35 19 35 47 56 76 72 53 88 128 150 163
165 166 169 164 166 164 152 136 130 125 176 178 176 175 168 169 160 147 142 123 117 104 90 96 98 85 95 86 71 52 35 23 25 28 31 51 61 67 55 35 20 162 160
164 169 169 165 172 162 162 168 174 199 208 204 210 188 177 175 168 156 149 134 132 130 135 130 119 99 70 65 75 40 23 27 32 31 42 57 53 52 57 44 33 35 46
178 182 175 179 181 182 186 182 173 168 185 193 200 189 185 180 173 167 150 148 148 138 125 122 116 114 84 70 104 90 15 5 15 32 44 60 45 48 53 48 49 55 34
185 186 189 192 190 188 173 140 119 96 75 112 200 209 207 183 172 162 156 151 155 154 158 153 138 132 139 74 78 121 126 241 336 4 32 46 46 48 29 24 39 39 40
196 188 184 185 187 185 171 170 173 181 193 208 202 202 198 181 169 163 159 159 162 158 155 166 144 137 137 138 84 66 106 143 144 0 4 28 35 37 7 356 358 6 21
190 184 182 176 182 183 181 183 183 193 202 187 170 175 186 190 179 171 160 157 162 162 161 153 139 140 139 144 145 128 98 73 87 139 312 348 4 6 358 341 331 352 7
184 179 172 171 186 183 182 183 185 190 183 174 182 185 193 188 183 177 164 163 163 161 165 168 160 153 156 147 144 140 143 138 157 149 178 271 331 335 351 352 352 346 359